When you browse on this site, cookies collect data to enhance your experience and personalize the content and advertising you see.
Visit our Privacy Policy to learn more. By continuing to use the site, you agree to this use of cookies and data.
  • In Hungary
  • List of Countries
  • For 7 days
  • Water Temperature
  • Satellite Maps
  • Weather Map
  • News
  • Weather Widgets
  • user-avatar
    Login

    Hourly Weather Olot

    Today, 20 January, Sunday

    Time Temperature Precipitation Wind Pressure Humidity
    00:00 +3°C° 0 mm 2 mps 717 mmHg 60%
    01:00 +3°C° 0.1 mm 2 mps 717 mmHg 63%
    02:00 +4°C° 0.1 mm 1 mps 716 mmHg 65%
    03:00 +5°C° 0.1 mm 1 mps 716 mmHg 68%
    04:00 +5°C° 0.5 mm 1 mps 716 mmHg 71%
    05:00 +5°C° 0.5 mm 1 mps 716 mmHg 73%
    06:00 +5°C° 0 mm 1 mps 716 mmHg 74%
    07:00 +5°C° 0.9 mm 1 mps 716 mmHg 76%
    08:00 +6°C° 0.9 mm 1 mps 716 mmHg 78%
    09:00 +5°C° 0.9 mm 2 mps 717 mmHg 80%
    10:00 +6°C° 0.3 mm 2 mps 717 mmHg 76%
    11:00 +7°C° 0.3 mm 2 mps 717 mmHg 72%
    12:00 +7°C° 0 mm 3 mps 717 mmHg 66%
    13:00 +7°C° 0 mm 3 mps 717 mmHg 64%
    14:00 +8°C° 0 mm 3 mps 717 mmHg 62%
    15:00 +8°C° 0 mm 3 mps 717 mmHg 60%
    16:00 +5°C° 0 mm 3 mps 718 mmHg 65%
    17:00 +4°C° 0 mm 3 mps 718 mmHg 70%
    18:00 +3°C° 0 mm 2 mps 718 mmHg 75%
    19:00 +3°C° 0 mm 2 mps 719 mmHg 76%
    20:00 +2°C° 0 mm 2 mps 719 mmHg 77%
    21:00 +2°C° 0 mm 2 mps 719 mmHg 78%
    22:00 +2°C° 0 mm 2 mps 720 mmHg 78%
    23:00 +2°C° 0 mm 2 mps 720 mmHg 78%

    Tomorrow, 21 January, Monday

    Time Temperature Precipitation Wind Pressure Humidity
    00:00 +2°C° 0 mm 2 mps 720 mmHg 78%
    01:00 +2°C° 0 mm 2 mps 720 mmHg 77%
    02:00 +2°C° 0 mm 2 mps 720 mmHg 77%
    03:00 +2°C° 0 mm 2 mps 720 mmHg 76%
    04:00 +2°C° 0 mm 2 mps 721 mmHg 76%
    05:00 +2°C° 0 mm 2 mps 721 mmHg 75%
    06:00 +1°C° 0 mm 2 mps 721 mmHg 75%
    07:00 +3°C° 0 mm 2 mps 722 mmHg 69%
    08:00 +5°C° 0 mm 1 mps 722 mmHg 64%
    09:00 +6°C° 0 mm 1 mps 723 mmHg 59%
    10:00 +8°C° 0 mm 1 mps 723 mmHg 52%
    11:00 +9°C° 0 mm 1 mps 723 mmHg 45%
    12:00 +11°C° 0 mm 1 mps 723 mmHg 39%
    13:00 +11°C° 0 mm 1 mps 723 mmHg 39%
    14:00 +10°C° 0 mm 1 mps 723 mmHg 40%
    15:00 +10°C° 0 mm 1 mps 722 mmHg 40%
    16:00 +8°C° 0 mm 1 mps 722 mmHg 48%
    17:00 +6°C° 0 mm 1 mps 722 mmHg 56%
    18:00 +4°C° 0 mm 1 mps 722 mmHg 64%
    19:00 +3°C° 0 mm 1 mps 723 mmHg 65%
    20:00 +3°C° 0 mm 1 mps 723 mmHg 67%
    21:00 +1°C° 0 mm 2 mps 723 mmHg 68%
    22:00 +1°C° 0 mm 2 mps 723 mmHg 66%
    23:00 +1°C° 0 mm 2 mps 723 mmHg 65%

    Day after tomorrow, 22 January, Tuesday

    Time Temperature Precipitation Wind Pressure Humidity
    00:00 -1°C° 0 mm 2 mps 723 mmHg 63%
    01:00 +1°C° 0 mm 1 mps 722 mmHg 60%
    02:00 +1°C° 0 mm 1 mps 722 mmHg 57%
    03:00 +1°C° 0 mm 1 mps 721 mmHg 55%
    04:00 +1°C° 0 mm 1 mps 721 mmHg 51%
    05:00 +1°C° 0 mm 1 mps 721 mmHg 48%
    06:00 +1°C° 0 mm 1 mps 720 mmHg 45%
    07:00 +2°C° 0 mm 1 mps 720 mmHg 41%
    08:00 +3°C° 0 mm 1 mps 720 mmHg 37%
    09:00 +4°C° 0 mm 0 mps 720 mmHg 33%
    10:00 +6°C° 0 mm 1 mps 719 mmHg 31%
    11:00 +7°C° 0 mm 1 mps 719 mmHg 30%
    12:00 +9°C° 0 mm 1 mps 718 mmHg 28%
    13:00 +8°C° 0 mm 1 mps 717 mmHg 29%
    14:00 +7°C° 0 mm 2 mps 716 mmHg 31%
    15:00 +7°C° 0 mm 2 mps 715 mmHg 32%
    16:00 +7°C° 0 mm 1 mps 715 mmHg 38%
    17:00 +6°C° 0 mm 1 mps 714 mmHg 45%
    18:00 +5°C° 0 mm 1 mps 714 mmHg 51%
    19:00 +4°C° 0 mm 1 mps 714 mmHg 55%
    20:00 +4°C° 0 mm 1 mps 714 mmHg 58%
    21:00 +3°C° 0 mm 1 mps 713 mmHg 62%
    22:00 +3°C° 0 mm 1 mps 713 mmHg 62%
    23:00 +3°C° 0 mm 1 mps 713 mmHg 61%

    23 January, Wednesday

    Time Temperature Precipitation Wind Pressure Humidity
    00:00 +3°C° 0 mm 1 mps 713 mmHg 61%
    01:00 +3°C° 0.1 mm 1 mps 713 mmHg 63%
    02:00 +3°C° 0.1 mm 1 mps 712 mmHg 66%
    03:00 +3°C° 0.1 mm 1 mps 712 mmHg 68%
    04:00 +2°C° 0.3 mm 0 mps 711 mmHg 71%
    05:00 +2°C° 0.3 mm 0 mps 711 mmHg 75%
    06:00 +1°C° 0.3 mm 0 mps 710 mmHg 78%
    07:00 +3°C° 0.6 mm 1 mps 710 mmHg 80%
    08:00 +3°C° 0.6 mm 1 mps 709 mmHg 82%
    09:00 +3°C° 0.6 mm 1 mps 709 mmHg 83%
    10:00 +4°C° 0.6 mm 1 mps 709 mmHg 79%
    11:00 +3°C° 0.6 mm 2 mps 709 mmHg 75%
    12:00 +4°C° 0.6 mm 2 mps 709 mmHg 71%
    13:00 +3°C° 0.3 mm 3 mps 709 mmHg 67%
    14:00 +1°C° 0.3 mm 4 mps 708 mmHg 62%
    15:00 +1°C° 0.3 mm 5 mps 708 mmHg 57%
    16:00 0°C° 0 mm 5 mps 709 mmHg 59%
    17:00 -1°C° 0 mm 4 mps 709 mmHg 61%
    18:00 -3°C° 0 mm 4 mps 709 mmHg 63%
    19:00 -3°C° 0 mm 4 mps 710 mmHg 63%
    20:00 -4°C° 0 mm 5 mps 711 mmHg 64%
    21:00 -4°C° 0 mm 6 mps 711 mmHg 64%
    22:00 -4°C° 0 mm 5 mps 712 mmHg 63%
    23:00 -4°C° 0 mm 5 mps 712 mmHg 62%

    24 January, Thursday

    Time Temperature Precipitation Wind Pressure Humidity
    00:00 -4°C° 0 mm 5 mps 712 mmHg 61%
    01:00 -4°C° 0 mm 5 mps 713 mmHg 60%
    02:00 -4°C° 0 mm 6 mps 713 mmHg 58%
    03:00 -4°C° 0 mm 6 mps 713 mmHg 57%
    04:00 -4°C° 0 mm 6 mps 713 mmHg 55%
    05:00 -4°C° 0 mm 6 mps 714 mmHg 54%
    06:00 -4°C° 0 mm 6 mps 714 mmHg 53%
    07:00 -3°C° 0 mm 6 mps 714 mmHg 49%
    08:00 -2°C° 0 mm 6 mps 715 mmHg 45%
    09:00 -1°C° 0 mm 6 mps 715 mmHg 42%
    10:00 +2°C° 0 mm 7 mps 716 mmHg 39%
    11:00 +3°C° 0 mm 7 mps 716 mmHg 37%
    12:00 +4°C° 0 mm 7 mps 717 mmHg 35%
    13:00 +5°C° 0 mm 6 mps 717 mmHg 35%
    14:00 +6°C° 0 mm 5 mps 717 mmHg 36%
    15:00 +6°C° 0 mm 4 mps 717 mmHg 36%
    16:00 +4°C° 0 mm 4 mps 718 mmHg 42%
    17:00 +1°C° 0 mm 3 mps 718 mmHg 48%
    18:00 -1°C° 0 mm 3 mps 719 mmHg 55%
    19:00 -1°C° 0 mm 3 mps 719 mmHg 56%
    20:00 -1°C° 0 mm 3 mps 720 mmHg 57%
    21:00 -2°C° 0 mm 3 mps 720 mmHg 58%
    22:00 -2°C° 0 mm 3 mps 720 mmHg 57%
    23:00 -2°C° 0 mm 3 mps 720 mmHg 56%

    25 January, Friday

    Time Temperature Precipitation Wind Pressure Humidity
    00:00 -2°C° 0 mm 3 mps 720 mmHg 56%
    01:00 -1°C° 0 mm 3 mps 720 mmHg 56%
    02:00 -1°C° 0 mm 3 mps 720 mmHg 56%
    03:00 -1°C° 0 mm 2 mps 720 mmHg 56%
    04:00 +1°C° 0 mm 2 mps 720 mmHg 59%
    05:00 +1°C° 0 mm 2 mps 720 mmHg 62%
    06:00 +2°C° 0 mm 2 mps 720 mmHg 65%
    07:00 +4°C° 0 mm 2 mps 720 mmHg 63%
    08:00 +6°C° 0 mm 2 mps 721 mmHg 62%
    09:00 +7°C° 0 mm 2 mps 721 mmHg 60%
    10:00 +9°C° 0 mm 2 mps 722 mmHg 57%
    11:00 +12°C° 0 mm 2 mps 722 mmHg 54%
    12:00 +14°C° 0 mm 2 mps 722 mmHg 51%
    13:00 +14°C° 0 mm 2 mps 722 mmHg 53%
    14:00 +14°C° 0 mm 2 mps 722 mmHg 54%
    15:00 +13°C° 0 mm 2 mps 722 mmHg 56%
    16:00 +10°C° 0 mm 2 mps 722 mmHg 63%
    17:00 +8°C° 0 mm 2 mps 722 mmHg 70%
    18:00 +6°C° 0 mm 2 mps 722 mmHg 77%
    19:00 +6°C° 0 mm 2 mps 722 mmHg 77%
    20:00 +5°C° 0 mm 2 mps 722 mmHg 78%
    21:00 +5°C° 0 mm 2 mps 723 mmHg 78%
    22:00 +5°C° 0 mm 2 mps 723 mmHg 78%
    23:00 +5°C° 0 mm 2 mps 723 mmHg 78%
    Show more